DW9417 Weather Reports


time (UTC)temp
C
wind
direction
speed
KPH
gust
KPH
rain 1hr
cm
rain 24hr
cm
rain mn
cm
humidity
%
barometer
mb
20260505224521 8 101 0.0 1.6 0.00 0.00 0.00 84 1029.6
20260505223019 8 103 0.0 1.6 0.00 0.00 0.00 83 1029.4
20260505221514 9 103 0.0 4.8 0.00 0.00 0.00 82 1029.1
20260505220010 10 104 0.0 6.4 0.00 0.00 0.00 82 1028.9
20260505214508 9 81 1.6 4.8 0.00 0.00 0.00 82 1028.8
20260505213014 10 105 0.0 4.8 0.00 0.00 0.00 82 1028.8
20260505211509 10 103 0.0 4.8 0.00 0.00 0.00 81 1028.8
20260505210002 10 126 0.0 3.2 0.00 0.00 0.00 81 1028.5
20260505204559 10 127 0.0 6.4 0.00 0.00 0.00 80 1028.4
20260505203120 10 126 1.6 9.7 0.00 0.00 0.00 80 1028.4
20260505201603 10 101 3.2 6.4 0.00 0.00 0.00 79 1028.3
20260505200057 11 96 0.0 0.0 0.00 0.00 0.00 79 1028.2
20260505194553 11 96 0.0 9.7 0.00 0.00 0.00 79 1028.2
20260505193052 11 104 1.6 9.7 0.00 0.00 0.00 79 1028.2
20260505191601 11 115 3.2 11.3 0.00 0.00 0.00 79 1028.1
20260505190049 11 121 3.2 9.7 0.00 0.00 0.00 80 1028.0
20260505184550 11 124 3.2 11.3 0.00 0.00 0.00 80 1028.1
20260505183049 10 99 3.2 9.7 0.00 0.00 0.00 81 1028.1
20260505181548 10 122 0.0 0.0 0.00 0.00 0.00 78 1028.0
20260505180044 11 121 0.0 3.2 0.00 0.00 0.00 77 1028.0
20260505174545 11 123 3.2 12.9 0.00 0.00 0.00 77 1027.9
20260505173041 11 115 6.4 12.9 0.00 0.00 0.00 76 1027.8
20260505171544 11 104 3.2 11.3 0.00 0.00 0.00 76 1028.0
20260505170100 11 109 1.6 6.4 0.00 0.00 0.00 77 1027.9
20260505164541 11 100 0.0 0.0 0.00 0.00 0.00 74 1027.8
20260505163035 11 101 0.0 0.0 0.00 0.00 0.00 72 1027.9
20260505161529 12 114 1.6 9.7 0.00 0.00 0.00 72 1027.8
20260505153024 12 111 9.7 17.7 0.00 0.00 0.00 70 1027.6
20260505151523 12 158 1.6 9.7 0.00 0.00 0.00 70 1027.6
20260505124520 11 144 0.0 0.0 0.00 0.00 0.00 71 1027.0
20260505123018 11 143 0.0 0.0 0.00 0.00 0.00 71 1026.8
20260505121517 11 136 0.0 0.0 0.00 0.00 0.00 69 1026.7
20260505120019 12 143 0.0 0.0 0.00 0.00 0.00 68 1026.6
20260505114519 12 144 0.0 0.0 0.00 0.00 0.00 66 1026.5
20260505113020 13 144 0.0 0.0 0.00 0.00 0.00 65 1026.6
20260505111515 14 146 0.0 0.0 0.00 0.00 0.00 63 1026.3
20260505101518 15 150 0.0 3.2 0.00 0.00 0.00 59 1025.9
20260505100018 17 150 1.6 8.0 0.00 0.00 0.00 55 1025.7
20260505094512 18 150 0.0 3.2 0.00 0.00 0.00 50 1025.6
20260505093025 19 150 0.0 4.8 0.00 0.00 0.00 48 1025.4
20260505091512 20 135 1.6 6.4 0.00 0.00 0.00 47 1025.3
20260505090011 20 115 4.8 11.3 0.00 0.00 0.00 47 1025.2
20260505084510 21 133 3.2 12.9 0.00 0.00 0.00 46 1025.2
20260505083009 21 136 0.0 11.3 0.00 0.00 0.00 45 1025.0
20260505081510 21 137 4.8 12.9 0.00 0.00 0.00 44 1025.0
20260505080009 21 149 6.4 11.3 0.00 0.00 0.00 44 1025.0
20260505074507 21 115 4.8 14.5 0.00 0.00 0.00 44 1024.9
20260505073007 22 106 3.2 9.7 0.00 0.00 0.00 44 1024.9
20260505071506 22 123 1.6 11.3 0.00 0.00 0.00 43 1024.9
20260505070006 22 133 0.0 11.3 0.00 0.00 0.00 44 1024.9
20260505064509 22 134 1.6 9.7 0.00 0.00 0.00 44 1024.9
20260505063002 22 96 0.0 4.8 0.00 0.00 0.00 45 1025.0
20260505061503 21 117 4.8 14.5 0.00 0.00 0.00 44 1025.0
20260505060059 21 65 1.6 9.7 0.00 0.00 0.00 45 1025.0
20260505054559 21 105 0.0 9.7 0.00 0.00 0.00 46 1025.1
20260505053106 21 329 1.6 9.7 0.00 0.00 0.00 48 1025.1
20260505051553 21 208 1.6 6.4 0.00 0.00 0.00 49 1025.1
20260505041541 20 84 0.0 8.0 0.00 0.00 0.00 52 1026.3
20260505040040 19 323 1.6 14.5 0.00 0.00 0.00 53 1026.5
20260505034536 19 63 3.2 9.7 0.00 0.00 0.00 54 1026.8
20260505033059 18 315 3.2 12.9 0.00 0.00 0.00 55 1027.0
20260505031537 18 360 4.8 9.7 0.00 0.00 0.00 56 1027.1
20260505030032 18 51 3.2 9.7 0.00 0.00 0.00 57 1027.1
20260505024529 17 355 4.8 8.0 0.00 0.00 0.00 59 1027.2
20260505023028 17 81 3.2 8.0 0.00 0.00 0.00 60 1027.3
20260505021525 17 32 3.2 8.0 0.00 0.00 0.00 61 1027.5
20260505020021 16 46 3.2 9.7 0.00 0.00 0.00 67 1027.6
20260505014518 16 360 6.4 12.9 0.00 0.00 0.00 68 1027.6
20260505013013 15 49 3.2 14.5 0.00 0.00 0.00 71 1027.7
20260505011509 13 67 3.2 8.0 0.00 0.00 0.00 78 1027.7
20260505010004 11 65 1.6 6.4 0.00 0.00 0.00 87 1027.7
20260505004602 10 92 0.0 0.0 0.00 0.00 0.00 93 1027.8
20260505003059 9 92 0.0 0.0 0.00 0.00 0.00 93 1027.9
20260505001553 8 92 0.0 0.0 0.00 0.00 0.00 93 1027.7
20260505000050 7 80 0.0 0.0 0.00 0.00 0.00 93 1027.5
20260504234611 6 84 0.0 0.0 0.00 0.00 0.00 92 1027.5
20260504233043 6 86 0.0 0.0 0.00 0.00 0.00 92 1027.4
20260504231551 6 90 0.0 0.0 0.00 0.00 0.00 91 1027.3
20260504230039 6 90 0.0 0.0 0.00 0.00 0.00 91 1027.2